Regional Weather Roundup
Issued by NWS

Home | Current Version | Previous Version | Graphics & Text | Print | Product List | Glossary On
Versions: 1 2 3 4 5 6 7 8 9 10 11 12 13 14 15 16 17 18 19 20 21 22 23 24 25 26 27 28 29 30 31 32 33 34 35 36 37 38 39 40 41 42 43 44 45 46 47 48 49 50
639
ASUS45 KPSR 250110
RWRAZ

ARIZONA HOURLY REGIONAL WEATHER ROUNDUP
NATIONAL WEATHER SERVICE PHOENIX AZ
600 PM MST WED MAY 24 2017

NOTE: FAIR INDICATES FEW OR NO CLOUDS BELOW 12,000 FEET WITH NO
SIGNIFICANT WEATHER AND/OR OBSTRUCTIONS TO VISIBILITY.

AZZ001>003-036-250200-
NORTHWEST ARIZONA

CITY           SKY/WX    TMP DP  RH WIND       PRES   REMARKS
BULLHEAD CITY  PTSUNNY  104  18   4 S16G22    29.46F
KINGMAN        PTSUNNY   92  25   9 SW20G26   29.70F
$$

AZZ004>008-015-016-018-250200-
NORTH CENTRAL ARIZONA

CITY           SKY/WX    TMP DP  RH WIND       PRES   REMARKS
GRAND CANYON   PTSUNNY   76  23  14 SW20G35   29.91F
WILLIAMS       SUNNY     77  21  12 W20G30    29.95F
PRESCOTT       PTSUNNY   85  24  11 SW18G28   29.85F
FLAGSTAFF      MOSUNNY   75  21  13 W20G29    29.96F
PAYSON         MOSUNNY   82  23  11 SW15G24   29.91F
PAGE           SUNNY     90  22   8 SW13G18   29.64F
$$

AZZ009>014-017-250200-
NORTHEAST ARIZONA

CITY           SKY/WX    TMP DP  RH WIND       PRES   REMARKS
WINSLOW        SUNNY     87  21   9 SW26G36   29.81S
SAINT JOHNS    SUNNY     84  16   8 W20G28    29.84F
SHOW LOW       FAIR      75  18  11 SW21G28   29.96S
$$

AZZ540-542>544-546-548-250200-
GREATER PHOENIX AREA

CITY           SKY/WX    TMP DP  RH WIND       PRES   REMARKS
PHOENIX        PTSUNNY  104  26   6 SW21      29.56F
BUCKEYE        SUNNY    102  23   6 W17G24    29.57F
GLENDALE       MOSUNNY  106  21   5 SW12G21   29.57F
LUKE AFB       SUNNY    104  27   6 SW20      29.55F
DEER VALLEY    MOSUNNY  101  21   6 W15G25    29.58F
SCOTTSDALE     PTSUNNY  102  23   6 W15G22    29.60F
MESA-FALCON    MOSUNNY  N/A N/A N/A MISG      29.59F
MESA-GATEWAY   MOSUNNY  102  27   7 W18       29.60F
CHANDLER       SUNNY    104  23   5 SW16      29.58F
$$

AZZ539-553-250200-
SOUTHWEST MARICOPA COUNTY AND PINAL COUNTY

CITY           SKY/WX    TMP DP  RH WIND       PRES   REMARKS
CASA GRANDE    MOSUNNY  102  29   7 W21       29.59F
GILA BEND      PTSUNNY  103  24   6 SW20G26   29.56F
$$

AZZ503-504-507>509-250200-
SOUTHEAST ARIZONA

CITY           SKY/WX    TMP DP  RH WIND       PRES   REMARKS
TUCSON         SUNNY    100  21   6 W15G26    29.71F
DAVIS-MONTHAN  SUNNY     99  22   6 W9G20     29.71F
NOGALES        SUNNY     93  18   6 SW18G24   29.84S
SIERRA VISTA   SUNNY     91  15   6 W16       29.89S
DOUGLAS        SUNNY     94  12   5 SW20G29   29.81F
SAFFORD        SUNNY     97  19   6 W23G32    29.69F
$$

AZZ532-250200-
SOUTHWEST ARIZONA

CITY           SKY/WX    TMP DP  RH WIND       PRES   REMARKS
YUMA           PTSUNNY  105  27   6 W14       29.53F
$$

CAZ041-043-047-048-061-525>527-560>570-250200-
SOUTHERN CALIFORNIA

CITY           SKY/WX    TMP DP  RH WIND       PRES   REMARKS
DOWNTOWN L.A.  SUNNY     68  55  63 VRB6      29.80F
L.A. AIRPORT   PTSUNNY   61  54  77 W15       29.82S
SAN DIEGO      PTSUNNY   64  54  69 W12       29.85S
BURBANK        SUNNY     70  52  52 S14       29.78F
ONTARIO        MOSUNNY   76  51  41 SW14      29.78S
RIVERSIDE      SUNNY     77  54  44 W12G20    29.76S
PALM SPRINGS   MOSUNNY  100  36  11 NW18G31   29.57F
EL CENTRO NAS  PTSUNNY   98  19   6 W28G35    29.57S
IMPERIAL       LGT RAIN  98  32  10 W22G31    29.54S
BLYTHE         MOSUNNY  105  19   4 W22       29.52F
NEEDLES        PTSUNNY  107  15   4 SW12G28   29.49F
$$

NVZ020-UTZ003-250200-
SOUTHERN NEVADA-UTAH

CITY           SKY/WX    TMP DP  RH WIND       PRES   REMARKS
LAS VEGAS      PTSUNNY   99   6   3 SW18G30   29.53F
SALT LAKE CITY CLOUDY    82  36  19 SW21G31   29.53S
$$

NMZ009-TXZ055-250200-
NEW MEXICO-WEST TEXAS

CITY           SKY/WX    TMP DP  RH WIND       PRES   REMARKS
ALBUQUERQUE    MOSUNNY   87  18   8 W20G29    29.77F
EL PASO        SUNNY     94  12   5 W10G21    29.74F
$$


........................KEY........................
SKY/WX - SKY CONDITION/WEATHER
TMP    - TEMPERATURE IN FAHRENHEIT
DP     - DEW POINT IN FAHRENHEIT
RH     - RELATIVE HUMIDITY IN PERCENT
WIND   - DIRECTION AND SPEED IN MILES PER HOUR (MPH)
VRB    - VARIABLE WIND DIRECTION
PRES   - MEAN SEA LEVEL PRESSURE IN INCHES OF MERCURY
         F - FALLING PRESSURE   R - RISING PRESSURE
         S - STEADY PRESSURE
VSB    - VISIBILITY IN MILES
HX     - HEAT INDEX IN FAHRENHEIT
WCI    - WIND CHILL INDEX IN FAHRENHEIT
TC     - TEMPERATURE IN CELSIUS WHICH IS ALSO KNOWN AS
         TEMPERATURE IN CENTIGRADE
AFB    - AIR FORCE BASE
         LUKE AFB IS LUKE AIR FORCE BASE
         DAVIS-MONTHAN IS DAVIS-MONTHAN AIR FORCE BASE
NAS    - NAVAL AIR STATION
         EL CENTRO NAS IS EL CENTRO NAVAL AIR STATION
N/A    - NOT AVAILABLE





USA.gov is the U.S. government's official web portal to all federal, state and local government web resources and services.